Home   Weather   Paterson   Past weeks

Flag for USA Past Weather in Paterson, New Jersey, USA — Yesterday and Last 2 Weeks

Now
85 °F

Scattered clouds.


Feels Like: 85 °F
Forecast: 67 / 85 °F
Wind: No wind

Location: Essex County Airport

Current Time: Aug 30, 2016 at 3:16:23 PM

Latest Report: Aug 30, 2016 at 2:53 PM


Visibility: 10 mi

Pressure: 30.10 "Hg

Humidity: 43%

Dew Point: 60 °F

Location of PatersonLocation

Past Weather in Paterson — Graph

°F

Paterson Temperature Yesterday

Maximum temperature yesterday: 88 °F (at 1:53 PM)
Minimum temperature yesterday: 71 °F (at 4:53 AM)
Average temperature yesterday: 79 °F

High & Low Weather Summary for the Past Weeks

 TemperatureHumidityPressure
High91 °F (Aug 16, 4:53 PM)94% (Aug 17, 1:53 AM)30.35 "Hg (Aug 17, 1:53 AM)
Low54 °F (Aug 23, 5:53 AM)36% (Aug 27, 2:53 PM)29.78 "Hg (Aug 21, 7:53 PM)
Average77 °F68%30.08 "Hg
* Reported Aug 15 1:53 PM — Aug 30 1:53 PM, Paterson, Weather by CustomWeather, © 2016

Note: Actual official high and low records may vary slightly from our data, if they occured in-between our weather recording intervals... More about our weather records

Advertising

Paterson Weather History for the Previous 24 Hours

Scroll right to see more
 ConditionsComfort  
Time TempWeatherWind HumidityBarometerVisibility
1:53 PM
Tue, Aug 30
82 °FScattered clouds.5 mph48%30.13 "Hg10 mi
12:53 PM82 °FPartly sunny.5 mph48%30.15 "Hg10 mi
11:53 AM81 °FSunny.No wind49%30.16 "Hg10 mi
10:53 AM78 °FSunny.No wind54%30.18 "Hg10 mi
9:53 AM75 °FSunny.5 mph58%30.19 "Hg10 mi
8:53 AM72 °FSunny.5 mph59%30.20 "Hg10 mi
7:53 AM68 °FSunny.3 mph73%30.19 "Hg10 mi
6:53 AM63 °FClear.No wind87%30.19 "Hg10 mi
5:53 AM64 °FClear.No wind84%30.18 "Hg10 mi
4:53 AM64 °FClear.No wind84%30.18 "Hg10 mi
3:53 AM65 °FClear.No wind85%30.18 "Hg10 mi
2:53 AM65 °FClear.3 mph85%30.17 "Hg10 mi
1:53 AM68 °FClear.No wind78%30.17 "Hg10 mi
12:53 AM68 °FClear.No wind78%30.16 "Hg10 mi
11:53 PM
Mon, Aug 29
71 °FClear.No wind71%30.16 "Hg10 mi
10:53 PM72 °FClear.No wind68%30.16 "Hg10 mi
9:53 PM73 °FClear.No wind66%30.16 "Hg10 mi
8:53 PM76 °FClear.No wind60%30.14 "Hg10 mi
7:53 PM80 °FSunny.No wind51%30.12 "Hg10 mi
6:53 PM84 °FSunny.6 mph46%30.11 "Hg10 mi
5:53 PM86 °FSunny.6 mph42%30.09 "Hg10 mi
4:53 PM88 °FSunny.7 mph38%30.09 "Hg10 mi
3:53 PM88 °FSunny.8 mph39%30.09 "Hg10 mi
Weather by CustomWeather, © 2016

See weather overviewHow to use our weather pages